This demonstration page uses our WeatherBlox Daily Observations layout. Learn more.

36.19886, -115.1175

Hourly Observations for September 5, 2019

Temp ( °F °C ) Dew Point ( °F °C ) Humidity (%) Winds ( mph kmh ) Pressure ( in mb ) Visibility ( mi km ) Precip ( " mm )
12:53 am 00:53 Clear 93 33.9 49 9.4 22 22 SW 12 19 29.88 1012 10 16.09344 0 0
1:53 am 01:53 Mostly Clear 93 33.9 48 8.9 21 21 undefined N/A 29.88 1012 10 16.09344 0 0
2:53 am 02:53 Clear 93 33.9 49 9.4 22 22 SW 3 6 29.85 1011 10 16.09344 0 0
3:53 am 03:53 Clear 90 32.2 50 10 25 25 SE 12 19 29.88 1012 10 16.09344 0 0
4:53 am 04:53 Clear 89 31.7 51 10.6 27 27 E 5 7 29.88 1012 10 16.09344 0 0
5:53 am 05:53 Clear 88 31.1 51 10.6 28 28 N 5 7 29.91 1013 10 16.09344 0 0
6:53 am 06:53 Sunny 87 30.6 51 10.6 29 29 NE 7 11 29.94 1014 10 16.09344 0 0
7:53 am 07:53 Sunny 89 31.7 51 10.6 27 27 Calm 29.97 1015 10 16.09344 0 0
8:53 am 08:53 Sunny 92 33.3 52 11.1 26 26 VRB 3 6 29.97 1015 10 16.09344 0 0
9:53 am 09:53 Sunny 94 34.4 51 10.6 23 23 SE 6 9 29.97 1015 10 16.09344 0 0
10:53 am 10:53 Sunny 98 36.7 50 10 20 20 E 6 9 29.97 1015 10 16.09344 0 0
11:53 am 11:53 Sunny 98 36.7 47 8.3 17 17 SW 13 20 29.97 1015 10 16.09344 0 0
12:53 pm 12:53 Sunny 97 36.1 45 7.2 17 17 W 7 11 29.97 1015 10 16.09344 0 0
1:53 pm 13:53 Sunny 100 37.8 45 7.2 15 15 undefined N/A 29.94 1014 10 16.09344 0 0
2:53 pm 14:53 Sunny 100 37.8 48 8.9 17 17 SSW 10 17 29.91 1013 10 16.09344 0 0
3:53 pm 15:53 Sunny 101 38.3 47 8.3 16 16 WSW 10 17 29.88 1012 10 16.09344 0 0
4:53 pm 16:53 Sunny 101 38.3 48 8.9 17 17 WNW 9 15 29.88 1012 10 16.09344 0 0
5:53 pm 17:53 Partly Cloudy 99 37.2 48 8.9 18 18 NNW 12 19 29.88 1012 10 16.09344 0 0
6:53 pm 18:53 Partly Cloudy 98 36.7 48 8.9 18 18 NNW 9 15 29.88 1012 10 16.09344 0 0
7:53 pm 19:53 Mostly Cloudy with Light Rain 89 31.7 58 14.4 35 35 SE 14 22 29.94 1014 10 16.09344 0.001 0.001
8:53 pm 20:53 Clear 90 32.2 57 13.9 33 33 W 6 9 29.94 1014 10 16.09344 0.001 0.001
9:53 pm 21:53 Clear 91 32.8 55 12.8 30 30 SSW 5 7 29.94 1014 10 16.09344 0 0
10:53 pm 22:53 Clear 90 32.2 56 13.3 32 32 NNW 5 7 29.94 1014 10 16.09344 0 0
11:53 pm 23:53 Clear 86 30 56 13.3 36 36 E 3 6 29.94 1014 10 16.09344 0 0

Powered by AerisWeather